ボアッティーニ彗星

387P/Boattini (2019)

English version
Home page
Updated on August 15, 2020

---------------------------------------------------------------------

・ プロフィール

符号 387P/2019 R1
検出日 2019年9月2日
検出光度 15.8等
検出者 G. Borisov (MARGO observatory near Nauchnij, Crimea)

・ 写真集

・ 軌道要素

Epoch 2019 Aug. 25.0 TT = JDT 2458720.5                                         
T 2019 Sept. 6.17877 TT                                 Bell                    
q   1.2678556            (2000.0)            P               Q                  
n   0.09365049     Peri.  162.80502     +0.46371322     -0.87279178             
a   4.8024480      Node   259.34069     +0.79356028     +0.48561240             
e   0.7359980      Incl.    8.91709     +0.39399510     +0.04914370             
P  10.5                                                                         
From 335 observations 2008 Dec. 22-2020 Jan. 29, mean residual 0".8.            

・ 星図

・ 光度変化

        m1 = 14.0 + 5 logΔ + 15.0 log r

---------------------------------------------------------------------

軌道要素はM.P.E.C. 2020-C98に掲載されたものです。
星図はステラナビゲータ Ver.10 (アストロアーツ) で作成したものです。
光度グラフはComet for Windowsで作成したものです。

---------------------------------------------------------------------

Copyright(C) Seiichi Yoshida (comet@aerith.net). All rights reserved.